Regional Weather Roundup
Issued by NWS

Home | Current Version | Previous Version | Text Only | Print | Product List | Glossary Off
Versions: 1 2 3 4 5 6 7 8 9 10 11 12 13 14 15 16 17 18 19 20 21 22 23 24 25 26 27 28 29 30 31 32 33 34 35 36 37 38 39 40 41 42 43 44 45 46 47 48 49 50

000
ASUS43 KLMK 250910
RWRKY
KENTUCKY REGIONAL WEATHER ROUNDUP
NATIONAL WEATHER SERVICE LOUISVILLE KY
500 AM EDT TUE APR 25 2017

NOTE "FAIR" INDICATES FEW OR NO CLOUDS BELOW 12,000 FEET
WITH NO SIGNIFICANT WEATHER AND/OR OBSTRUCTIONS TO VISIBILITY.

KYZ001>023-026-027-061>063-070>075-251000-
WESTERN AND SOUTH CENTRAL KENTUCKY

CITY           SKY/WX    TMP DP  RH WIND       PRES   REMARKS
PADUCAH        CLEAR     58  53  84 SW7       29.73S
HENDERSON      CLEAR     56  53  90 SW3       29.74F
OWENSBORO      CLEAR     55  52  89 CALM      29.76S
HOPKINSVILLE   CLEAR     53  53 100 SW5       29.75F
BOWLING GREEN  CLEAR     53  52  96 CALM      29.77R
GLASGOW        FOG      N/A N/A N/A CALM      29.76S VSB 1/2
$$

KYZ024-025-028>034-038-045-046-053-251000-
NORTH CENTRAL KENTUCKY

CITY           SKY/WX    TMP DP  RH WIND       PRES   REMARKS
LOUISVILLE/SDF CLEAR     59  53  80 CALM      29.76S
LOUISVILLE/LOU CLEAR     57  54  89 CALM      29.77S
FORT KNOX      CLEAR     51  50  99 CALM      29.75S
$$

KYZ035>037-039>044-047>052-055>060-089>105-251000-
NORTHEAST KENTUCKY

CITY           SKY/WX    TMP DP  RH WIND       PRES   REMARKS
LEXINGTON      CLOUDY    56  52  86 E5        29.78R
COVINGTON      CLEAR     53  50  89 E8        29.78S
FRANKFORT      CLEAR     53  49  86 NE6       29.76F
$$

KYZ054-064>069-076>088-106>120-251000-
SOUTHEAST KENTUCKY

CITY           SKY/WX    TMP DP  RH WIND       PRES   REMARKS
JACKSON        CLOUDY    52  51  97 CALM      29.77R
LONDON         CLOUDY    53  50  89 CALM      29.76S
SOMERSET       CLEAR     52  52 100 E3        29.78R
MIDDLESBORO    CLOUDY    52  52 100 CALM      29.77S
MONTICELLO     FOG       49  48  97 NE8       29.78S VSB 1/4
$$





USA.gov is the U.S. government's official web portal to all federal, state and local government web resources and services.